O3b星座 FM2星 (O3B FM2)

导读

O3B FM2是O3b卫星星座系列的第一代通信卫星,由英国阿莱尼亚宇航公司研发。于2013年6月25日在圭亚那航天中心发射,由联盟ST-B Fregat-MT运载火箭送入轨道。卫星质量约700kg,运行于高度7825km的中地球轨道,轨道倾角0°,设计寿命10年,是O3b提供中低时延通信服务的重要组成部分。

Basic Information
目录编号:
39190
目录名称:
O3B FM2
国际标识:
2013-031C
轨道中心:
EARTH
卫星名称:
O3b星座 FM2星
卫星全名:
O3b星座 FM2星 (O3B FM2)
卫星状态:
在轨 (已飞行4780 天)
发射日期:
2013-06-25 UTC
国别 :
(O3B)
星等 :
--
Orbit Information
数据来源 国际轨道数据 AOE轨道数据
星历时间 2026-07-26T08:05:15+0800
1天前
查看轨道信息
2026-07-27T08:00:00+0800
22小时前
查看轨道信息
半长轴 14444.016km 14444.007km
偏心率 0.0002699 0.0002687
轨道倾角 0.034° 0.034°
近地点辐角 134.206° 135.155°
升交点赤经 345.836° 345.746°
平近点角 239.983° 233.547°
近地点 8061.98km 8061.988km
远地点 8069.778km 8069.752km
周期 287.933分钟 287.933分钟
每日圈数 5.001161 5.001166
Detailed Information
平衡模式:
三轴稳定
覆盖范围:
全球
运营商:
欧洲卫星公司
运营商所在国:
卢森堡
制造商(研发单位):
阿莱尼亚宇航公司
制造商所在国:
意大利
使用方式:
暂无
Satellite Introduction
O3b卫星星座分为O3b FM卫星星座和O3b mPOWER卫星星座,前者是由阿莱尼亚宇航公司制造的第一代O3b卫星星座,后者是由波音公司制造的第二代O3b卫星星座。O3b卫星初始星座运行于赤道圆轨道,轨道高度8062公里,能够覆盖全球南北纬45°之间所有地方,在南、北纬45°~62°范围内也能提供一定的服务。该卫星仍在工作。
2D Orbit Map
3D Orbit Map
Orbit Altitude Analysis Chart
Orbit Inclination Analysis Chart
Orbit Comprehensive Analysis Chart
View Comprehensive Chart